Change the Weather History Date:

Thursday, February 14, 2013

  Actual Average Record
Temperature  
Mean Temperature 45 °F 54 °F  
Max Temperature 53 °F 67 °F 67 °F (2014)
Min Temperature 37 °F 42 °F 28 °F (2015)
Degree Days  
Heating Degree Days 20 11  
Month to date heating degree days 104 175  
Since 1 July heating degree days 733 1244  
Moisture  
Dew Point 40 °F    
Average Humidity 73    
Maximum Humidity 86    
Minimum Humidity 59    
Precipitation  
Precipitation 0.01 in 0.15 in 0.00 in (2015)
Month to date precipitation 0.50 1.28  
Year to date precipitation 1.26 5.85  
Sea Level Pressure  
Sea Level Pressure 30.08 in    
Wind  
Wind Speed 3 mph (NNE)    
Max Wind Speed 12 mph    
Max Gust Speed 14 mph    
Visibility 9 miles    
Events Rain    
T = Trace of Precipitation, MM = Missing Value Source: NWS Daily Summary

Daily Weather History Graph

Daily Weather History Graph

Search for Another Location

Airport or City:

Trip Planner

Search our weather history database for the weather conditions in past years. The results will help you decide how hot, cold, wet, or windy it might be!

Date:

Astronomy

Feb. 14, 2013 Rise Set
Actual Time 7:14 AM EST 6:20 PM EST
Civil Twilight 6:49 AM EST 6:45 PM EST
Nautical Twilight 6:21 AM EST 7:13 PM EST
Astronomical Twilight 5:53 AM EST 7:41 PM EST
Moon 9:38 AM EST (2/14) 10:57 PM EST (2/14)
Length of Visible Light 11h 55m
Length of Day
11h 05m
Waxing Crescent, 21% of the Moon is Illuminated
Feb 14
Waxing Crescent
Feb 17
First Quarter
Feb 25
Full
Mar 4
Last Quarter
Mar 11
New

Hourly Weather History & Observations

Time (EST) Temp. Dew Point Humidity Pressure Visibility Wind Dir Wind Speed Gust Speed Precip Events Conditions
12:53 AM 52.0 °F 44.1 °F 74% 30.02 in 10.0 mi Variable 3.5 mph - 0.00 in Rain Light Rain
1:53 AM 52.0 °F 45.0 °F 77% 30.02 in 10.0 mi NW 4.6 mph - 0.00 in   Overcast
2:53 AM 51.1 °F 45.0 °F 80% 30.02 in 9.0 mi Variable 3.5 mph - 0.00 in Rain Light Rain
3:53 AM 50.0 °F 46.0 °F 86% 30.02 in 10.0 mi Calm Calm - 0.01 in   Clear
4:53 AM 50.0 °F 45.0 °F 83% 29.99 in 10.0 mi Variable 3.5 mph - N/A   Partly Cloudy
5:53 AM 50.0 °F 45.0 °F 83% 30.03 in 10.0 mi Variable 3.5 mph - N/A   Overcast
6:53 AM 48.9 °F 44.1 °F 83% 30.05 in 10.0 mi Calm Calm - N/A   Mostly Cloudy
7:53 AM 48.9 °F 42.1 °F 77% 30.08 in 10.0 mi Variable 3.5 mph - N/A   Mostly Cloudy
8:53 AM 48.9 °F 41.0 °F 74% 30.12 in 10.0 mi Calm Calm - N/A   Mostly Cloudy
9:53 AM 48.9 °F 39.0 °F 69% 30.13 in 10.0 mi North 6.9 mph - N/A   Mostly Cloudy
10:53 AM 48.9 °F 37.9 °F 66% 30.14 in 10.0 mi North 4.6 mph - N/A   Mostly Cloudy
11:53 AM 50.0 °F 39.0 °F 66% 30.12 in 10.0 mi Variable 3.5 mph - N/A   Mostly Cloudy
12:53 PM 50.0 °F 37.9 °F 63% 30.10 in 10.0 mi North 8.1 mph - N/A   Mostly Cloudy
1:53 PM 51.1 °F 37.9 °F 61% 30.09 in 10.0 mi Calm Calm - N/A   Mostly Cloudy
2:53 PM 52.0 °F 37.9 °F 59% 30.08 in 10.0 mi Variable 3.5 mph - N/A   Mostly Cloudy
3:53 PM 51.1 °F 37.0 °F 59% 30.05 in 10.0 mi ENE 4.6 mph - N/A   Overcast
4:53 PM 51.1 °F 37.0 °F 59% 30.07 in 10.0 mi NE 3.5 mph - N/A   Mostly Cloudy
5:53 PM 50.0 °F 39.0 °F 66% 30.09 in 10.0 mi Calm Calm - N/A   Mostly Cloudy
6:53 PM 48.0 °F 39.0 °F 71% 30.07 in 10.0 mi North 4.6 mph - N/A   Mostly Cloudy
7:53 PM 45.0 °F 39.9 °F 82% 30.10 in 10.0 mi Calm Calm - N/A   Clear
8:53 PM 45.0 °F 39.9 °F 82% 30.12 in 10.0 mi Calm Calm - N/A   Clear
9:53 PM 43.0 °F 37.9 °F 82% 30.12 in 8.0 mi Calm Calm - N/A   Clear
10:53 PM 39.0 °F 35.1 °F 86% 30.13 in 4.0 mi Calm Calm - N/A   Clear
11:53 PM 37.0 °F 33.1 °F 86% 30.12 in 3.0 mi Calm Calm - N/A   Clear